STARLINK-34985, 65379

Orbit data source: Space-Track

STARLINK-34985, 65379 is a payload satellite owned by SpaceX/Seattle (US) in SSO that was launched on Sat, 30 Aug 2025 UTC via an FALCON 9 launch vehicle from the Air Force Western Test Range (AFWTR). Payload-class satellites include a variety of spacecraft equipped with specific instruments for various scientific and technological missions. These include communications satellites like Starlink; space stations such as the ISS; scientific satellites like the Hubble; Earth observation satellites from companies like Planet Labs, Umbra, and HawkEye 360; GPS; miniature CubeSats for education and research; and military/defense satellites.

Loading next visibility...
Identifier
65379, 2025-191A
Orbit
SSO
Country
Flag of USUS
Related business
Manufacturer
SpaceX/Seattle
Mission
Operational Commercial Communications
Bus & Motor
STARLINK V2MO, Unknown motor
Mass
575 kg wet, ~530 kg dry
Launch date (UTC)
2025-08-30 (7 months ago)
Launch vehicle
FALCON 9
Launch site
Air Force Western Test Range (AFWTR)
Object type
Payload
Rocket body
Debris
Shape & HBR
Box + 2 Pan, 17.7 m
Radar Cross Section
36.964 m², Large (>1 m²)

Expand to show TLE details & history
Last TLE update: 15 hours ago

TLE from 15 hours ago
0 STARLINK-34985
1 65379U 25191A   26093.59491722  .00010482  00000-0  72923-3 0  9998
2 65379  97.6017 326.0198 0002728  86.1899 273.9639 15.05666433 34017
Epoch: 2026-04-03T14:16Z
TLE epoch observation values (Epoch: 2026-04-03T14:16:40.847Z)
Latitude
-0.00011°
Longitude
-80.07718°
Altitude
552.396 km
Speed
7.586 km/s
True Right ascension
21h 44m 04s
True Declination
0° 00' 00"
Sunlit
Object was in daylight at epoch
Visualization orbit readout
Latitude
Unknown
Longitude
Unknown
Altitude
Unknown
Speed
Unknown
Apparent Right ascension
Unknown
Apparent Declination
Unknown
Sunlit
N/A
Visualization observer readout
Local Sidereal Time
11:24:55
Azimuth
Unknown
Elevation
Unknown
Doppler factor
Unknown
Orbital elements
Apogee altitude
548.343 km
Perigee altitude
544.565 km
Semi-major axis
6,924.591 km
Eccentricity
0.00027
Inclination
97.6017°
RAAN
326.0198°
Arg. of periapsis
86.1899°
True anomaly
273.93271°
Mean anomaly
273.9639°
Eccentric anomaly
273.94831°
Mean motion
3.76662 °/min
Orbital period
95.58 mins
BSTAR
0.00072923
Loading maneuver chart data...
Computing Atmospheric mass density...
Loading historical data...
Loading historical data...
Loading historical data...
Loading historical data...
Loading historical data...
Loading historical data...
Loading historical data...

Documentation

Showing up to 5 results
|